{"data":{"norad_id":69280,"epoch":"2026-09-19T17:11:25.813536Z","epoch_age_seconds":97773,"freshness":"FRESH","line1":"1 69280U 26118P   26262.71627099  .00001724  00000+0  25517-3 0  9998","line2":"2 69280  51.9016 325.1240 0001165 182.1933 177.9024 14.79920267 18439","mean_motion":14.79920267,"eccentricity":0.0001165,"inclination_deg":51.9016,"raan_deg":325.124,"arg_perigee_deg":182.1933,"mean_anomaly_deg":177.9024,"bstar":0.00025517,"rev_number":1843,"period_min":97.302539340114,"perigee_km":628.7594258449,"apogee_km":630.39222293298,"semimajor_km":7007.7128243889,"source":"CELESTRAK","updated_at":"2026-09-20T09:00:24.779646Z"}}